Regional Weather Roundup
Issued by NWS Wakefield, VA

Home | Current Version | Previous Version | Graphics & Text | Print | Product List | Glossary On
Versions: 1 2 3 4 5 6 7 8 9 10 11 12 13 14 15 16 17 18 19 20 21 22 23 24 25 26 27 28 29 30 31 32 33 34 35 36 37 38 39 40 41 42 43 44 45 46 47 48 49 50
000
ASUS41 KAKQ 252114
RWRAKQ

REGIONAL WEATHER ROUNDUP
NATIONAL WEATHER SERVICE WAKEFIELD VA
500 PM EDT SAT APR 25 2015

Note: "fair" indicates few or no clouds below 12,000 feet with no
significant weather and/or obstructions to visibility. * = Denotes
station may not report precipitation (e.g., rain,snow,etc.),
thunder or fog.

VAZ042-051-052>054-056-252200-
NORTHERN VIRGINIA

CITY           SKY/WX    TMP DP  RH WIND       PRES   REMARKS
WASH NATIONAL  CLOUDY    52  32  46 SW8       29.80F
DULLES         LGT RAIN  48  27  44 SW6       29.78F
FORT BELVOIR   LGT RAIN  49  32  51 VRB6      29.80F
QUANTICO       LGT RAIN  47  38  71 W5        29.82F
FREDERICKSBRG* RAIN      46  42  85 CALM      29.80F
STAFFORD*      RAIN      44  32  62 CALM      29.84F
WARRENTON      RAIN      45  40  82 CALM      29.80F
CULPEPER*      LGT RAIN  45  39  81 CALM      29.81S
MANASSAS*      CLOUDY    46  36  66 SW6       29.81F
LEESBURG*      CLOUDY    52  28  40 S8        29.79F
WINCHESTER     LGT RAIN  50  18  27 SE7       29.76F
FRONT ROYAL*   CLOUDY    46  32  57 CALM      29.75F
LURAY*         LGT RAIN  45  41  87 W6        29.78R
$$

VAZ048-049-060>072-079>083-252200-
CENTRAL AND SOUTH CENTRAL VIRGINIA

CITY           SKY/WX    TMP DP  RH WIND       PRES   REMARKS
RICHMOND       RAIN      47  44  90 NE5       29.80F FOG
CHESTERFIELD*  CLOUDY    45  34  65 CALM      29.81F
PETERSBURG*    LGT RAIN  48  46  95 E6        29.80F
HANOVER        LGT RAIN  44  40  85 E3        29.82F
TAPPAHANNOCK*  LGT RAIN  46  41  82 CALM      29.80F
QUINTON*       CLOUDY    45  43  95 N3        29.80F
CHARLOTTSVILLE LGT RAIN  43  39  86 S5        29.80F
GORDONSVILLE*  CLOUDY    43  39  86 S3        29.80S
ORANGE*        LGT RAIN  45  43  93 S3        29.81F
LOUISA*        DRIZZLE   45  41  87 CALM      29.78F
BUMPASS*       CLOUDY    43  39  85 CALM      29.80F
FARMVILLE*     LGT RAIN  46  46 100 NE6       29.79F
CREWE*         CLOUDY    45  44  96 CALM      29.78F
FORT PICKETT*  CLOUDY    45  44  98 NE6       29.78F
CHASE CITY*    CLOUDY    48  48 100 NE3       29.76F
CLARKSVILLE*   CLOUDY    46  46 100 CALM      29.74F
SOUTH HILL*    CLOUDY    46  45  97 CALM      29.82F
LAWRENCEVILLE* CLOUDY    46  46  99 NE5       29.76F
EMPORIA*       RAIN      45  45 100 NE5       29.79F
$$

VAZ088>098-252200-
SOUTHEAST VIRGINIA

CITY           SKY/WX    TMP DP  RH WIND       PRES   REMARKS
NORFOLK        RAIN      48  43  82 E7        29.80F
VIRGINIA BEACH RAIN      49  43  80 E7        29.81F
NORFOLK NAVAL  LGT RAIN  50  45  83 E7        29.82F
WEST POINT*    CLOUDY    49  45  86 E5        29.81F
SALUDA*        CLOUDY    45  42  91 S6        29.81F
NEWPORT NEWS   RAIN      50  45  83 E8        29.80F
LANGLEY AFB    LGT RAIN  46  45  93 E8        29.79F FOG
FORT EUSTIS    LGT RAIN  48  48 100 E6        29.78F
WILLIAMSBURG*  CLOUDY    50  48  93 E5        29.81F
HR EXEC AP*    CLOUDY    50  43  76 E8        29.82F
FRANKLIN*      DRIZZLE   47  45  95 E8        29.79F
WAKEFIELD      LGT RAIN  46  43  89 VRB5      29.79F FOG
$$

VAZ020-022-025-037-045-252200-
WEST CENTRAL AND SOUTHWEST VIRGINIA

CITY           SKY/WX    TMP DP  RH WIND       PRES   REMARKS
STAUNTON*      DRIZZLE   43  38  83 SW3       29.79F
WAYNESBORO*    CLOUDY    38  37  94 SE7       29.77F
HOT SPRINGS VA DRZL/FOG  35  35 100 SE8       29.67F VSB<1/4
LYNCHBURG      CLOUDY    41  40  96 NE7       29.79F FOG
DANVILLE       CLOUDY    47  43  86 NE7       29.76F FOG
SOUTH BOSTON*  CLOUDY    46  45  95 N6        29.76F
MARTINSVILLE   CLOUDY    46  46 100 NE5       29.78S
ROANOKE        CLOUDY    42  40  92 SE9       29.78F FOG
BLACKSBURG     CLOUDY    40  39  96 E6        29.75F FOG
DUBLIN*        CLOUDY    47  45  91 E7        29.72F
MARION*        CLOUDY    51  43  73 E7        29.70F
HILLSVILLE*    CLOUDY    52  45  76 SE7       29.69F
RICHLANDS*     CLOUDY    63  49  61 SW8       29.63F
WISE*          CLOUDY    64  52  63 SW18      29.63F
ABINGDON*      CLOUDY    66  51  59 CALM      29.63F
$$

MDZ021>025-VAZ099-100-252200-
SOUTHERN MARYLAND AND THE DELMARVA PENINSULA

CITY           SKY/WX    TMP DP  RH WIND       PRES   REMARKS
PATUXENT RIVER LGT RAIN  49  39  68 SW7       29.80F
BAY BRIDGE APT   N/A    N/A N/A N/A S5        29.79F
LEONARDTOWN    CLOUDY    48  36  61 SW5       29.82S
DOVER          CLOUDY    51  33  49 SW10      29.74F
GEORGETOWN     CLOUDY    50  27  40 W6        29.80F
EASTON         MOSUNNY   52  34  50 SW8       29.83F
CAMBRIDGE      CLOUDY    52  32  46 SW3       29.80F
SALISBURY      CLOUDY    50  33  52 SW6       29.80F
OCEAN CITY     CLOUDY    47  34  60 SW6       29.81F
WALLOPS ISLAND LGT RAIN  46  42  86 W3        29.82F
ACCOMACK*      LGT RAIN  45  23  42 S3        29.81F
$$

NCZ012>017-030>032-252200-
NORTH CENTRAL AND EASTERN NORTH CAROLINA

CITY           SKY/WX    TMP DP  RH WIND       PRES   REMARKS
ROANOKE RAPIDS DRIZZLE   50  48  93 E5        29.75F
RALEIGH        LGT RAIN  54  54 100 N5        29.72F VSB 1/4
ELIZABETH CITY CLOUDY    54  39  57 E10       29.77F
AHOSKIE*       DRIZZLE   49  48  95 NE5       29.77F
EDENTON*       DRIZZLE   56  53  90 NE3       29.77F
CURRITUCK*     CLOUDY    53  35  49 NE8       29.79F
KILL DEVIL HLS CLOUDY    54  45  69 E5        29.76F
MANTEO         CLOUDY    55  46  70 E9        29.77F
CAPE HATTERAS  CLOUDY    59  49  69 W6        29.76F
TARBORO*       RAIN      56  54  93 SE3       29.75F
GOLDSBORO      CLOUDY    60  57  92 SE6       29.70F
WASHINGTON       N/A     56  54  92 E5        29.75F
GREENVILLE     LGT RAIN  55  55 100 SE3       29.77F
NEW BERN       CLOUDY    62  54  74 CALM      29.76F
WILMINGTON     CLOUDY    65  57  75 E6        29.73F
$$

VAZ048-252200-
ELSEWHERE

CITY           SKY/WX    TMP DP  RH WIND       PRES   REMARKS
HARRISBURG PA  PTSUNNY   55  22  27 CALM      29.74F
BALTIMORE      CLOUDY    51  29  42 SW5       29.77F
ANNAPOLIS      CLOUDY    52  31  44 CALM      29.78F
ANDREWS AFB    CLOUDY    50  32  49 SW6       29.78F
PHILADELPHIA   PTSUNNY   58  24  27 SW13      29.76F
HENDERSON NC   DRIZZLE   48  46  92 NE6       29.74F
GREENSBORO     CLOUDY    48  47  96 N9        29.72F FOG
ROCKY MOUNT    CLOUDY    56  55  97 CALM      29.73F
$$

VAZ100-252200-
MARINE

STATION/POSITION TIME  TEMP    WIND        PRES    WAVE   SWELL
                       AIR SEA DIR/SP/G            HT/PER HT/PER
                 (UTC) (F)     (DEG/KT/KT) (MB)    (FT/S) (FT/S)
BRANDYWINE LGT   2000   48 53  310/  4/  5 1009.6F
CAPE MAY NJ      2000   48 54  270/  6/  7 1009.2F
LEWES DE         2000   50 51  280/  5/  9 1009.3F
15NM E FENWICK I 2050   45 47              1009.5F   1/12
OCEAN-CITY-INLET 2000   46 50  210/ 10/ 12 1009.6F
WACHAPREAGUE VA  2000   45 56  240/  3/  4 1010.1F
THOMAS POINT MD  2100   49 52  160/  9/ 10 1009.2F
GOOSES REEF MD   2100   49 53  260/  6/  8   N/A     1
COVE POINT MD    2000   48     220/  4/  5 1010.3F
SOLOMONS ISLAND  2000      55                N/A
BISHOPS HEAD MD  2000   50 54  220/  8/ 10 1009.3F
PINEY POINT MD   2000          210/  8/ 10   N/A
CAMBRIDGE MD     2000   50 58  260/  3/  6 1009.5F
LEWISETTA VA     2000   48 56              1009.4F
RAPPAHANNOCK LGT 2000          130/  5/  7 1010.7F
YORK RVR RNG VA  2000   48     100/ 11/ 13 1009.3F
YORKTOWN VA      2000   49 60  110/  7/ 10 1009.8F
JAMESTOWN VA     2100   47 64  110/  8/ 12 1007.9F
DOMINION TERM VA 2000   49      80/  7/ 11 1009.8F
KIPTOPEKE VA     2000      62   70/  6/  8   N/A
CHES BAY BRIDGE  2000   48 53   60/ 11/ 13 1009.3F
CAPE HENRY VA    2000   48      80/ 11/ 12 1008.5F
CHESAPEAKE LGHT  2000   47      80/  9/ 10 1010.9F
WILLOUBY STN VA  2000   49     110/ 10/ 12 1010.0F
S CRANEY ISL VA  2000           90/  7/  9 1009.5F
CAPE HENRY BUOY  2028      52                N/A     2/ 4
1ST LANDING BUOY 2100                      1009.2F   1/ 3
OFFSHORE WE BUOY 2011      50                N/A     2/ 5   2/ 5
64NM E OF VA BCH 2050   53 58   70/ 10/ 12 1008.8F   2/ 5   2/ 5
DUCK PIER NC     2000   53 55   60/ 12/ 14 1008.4F
44056 DUCK FRF   2011      55                N/A     2/ 3
OREGON INLET NC  2000   55 59   70/  7/ 10 1008.9F
HATTERAS NC      2000   63 65  240/  9/ 12 1008.2F
DIAMOND SHLS NC  2050   65 70  270/ 10/ 14 1007.8F   3/ 9   2/ 9
CAPE LOOKOUT NC  2100   61     150/  4/  4 1007.2F
$$



USA.gov is the U.S. government's official web portal to all federal, state and local government web resources and services.